LHA348 LOWW-LSZH

Flight info

Callsign LHA348
Flight time 0h 57m
Altitude 30000
Route SOVIL DCT SITNI DCT BAGSI DCT MATIG DCT TRAUN/N0341F120 L856 NEGRA
Aircraft B738/M-SDE1E2FGIRWYZ/S

Departure

Time 2026-05-05 10:18
Airport Vienna International Airport (LOWW)

Arrival

Time 2026-05-05 11:15
Airport Zürich Airport (LSZH)
Time Latitude Longitude Altitude Speed Heading
2026-05-05 09:47 48.11668 16.56897 600 ft 0 kts 27°
2026-05-05 10:09 48.11662 16.56893 600 ft 2 kts 26°
2026-05-05 10:09 48.11649 16.56883 600 ft 2 kts 27°
2026-05-05 10:09 48.11635 16.56873 600 ft 2 kts 34°
2026-05-05 10:10 48.11624 16.56856 600 ft 2 kts 57°
2026-05-05 10:10 48.11618 16.56836 600 ft 2 kts 77°
2026-05-05 10:10 48.11617 16.56813 600 ft 2 kts 97°
2026-05-05 10:10 48.11620 16.56794 600 ft 0 kts 113°
2026-05-05 10:11 48.11623 16.56785 599 ft 1 kts 116°
2026-05-05 10:13 48.11615 16.56809 600 ft 0 kts 117°
2026-05-05 10:14 48.11609 16.56827 600 ft 7 kts 117°
2026-05-05 10:14 48.11568 16.56951 601 ft 18 kts 116°
2026-05-05 10:14 48.11509 16.57134 602 ft 18 kts 116°
2026-05-05 10:15 48.11456 16.57296 603 ft 16 kts 116°
2026-05-05 10:15 48.11462 16.57436 603 ft 14 kts 32°
2026-05-05 10:15 48.11549 16.57507 602 ft 14 kts 28°
2026-05-05 10:15 48.11639 16.57538 602 ft 13 kts 348°
2026-05-05 10:16 48.11710 16.57589 601 ft 11 kts 56°
2026-05-05 10:16 48.11775 16.57620 600 ft 11 kts 347°
2026-05-05 10:16 48.11850 16.57597 600 ft 9 kts
2026-05-05 10:16 48.11862 16.57669 600 ft 7 kts 91°
2026-05-05 10:17 48.11855 16.57766 600 ft 13 kts 107°
2026-05-05 10:17 48.11814 16.57886 601 ft 12 kts 145°
2026-05-05 10:17 48.11721 16.57929 601 ft 21 kts 164°
2026-05-05 10:17 48.11475 16.58033 603 ft 64 kts 165°
2026-05-05 10:18 48.10838 16.58302 608 ft 124 kts 166°
2026-05-05 10:18 48.09838 16.58724 688 ft 165 kts 162°
2026-05-05 10:18 48.08750 16.59197 1267 ft 171 kts 161°
2026-05-05 10:18 48.07659 16.59730 2292 ft 164 kts 162°
2026-05-05 10:19 48.06572 16.60153 2914 ft 170 kts 175°
2026-05-05 10:19 48.05422 16.59699 3410 ft 185 kts 214°
2026-05-05 10:19 48.04567 16.58171 3914 ft 202 kts 233°
2026-05-05 10:19 48.03767 16.56367 4415 ft 216 kts 231°
2026-05-05 10:20 48.02841 16.54458 4875 ft 236 kts 230°
2026-05-05 10:20 48.01839 16.52473 5575 ft 246 kts 230°
2026-05-05 10:20 48.00798 16.50418 6245 ft 256 kts 231°
2026-05-05 10:20 47.99728 16.48288 7051 ft 261 kts 231°
2026-05-05 10:21 47.98659 16.46075 7840 ft 267 kts 235°
2026-05-05 10:21 47.97898 16.43528 8625 ft 277 kts 255°
2026-05-05 10:21 47.97802 16.40679 9411 ft 284 kts 270°
2026-05-05 10:21 47.97963 16.37731 10194 ft 289 kts 271°
2026-05-05 10:22 47.98147 16.34680 10726 ft 302 kts 270°
2026-05-05 10:22 47.98312 16.31459 11186 ft 317 kts 270°
2026-05-05 10:22 47.98455 16.28132 11609 ft 333 kts 270°
2026-05-05 10:22 47.98592 16.24610 12075 ft 347 kts 270°
2026-05-05 10:23 47.98730 16.20988 12760 ft 353 kts 270°
2026-05-05 10:23 47.98867 16.17353 13492 ft 357 kts 270°
2026-05-05 10:23 47.99007 16.13638 14273 ft 360 kts 270°
2026-05-05 10:23 47.99184 16.09907 14989 ft 365 kts 272°
2026-05-05 10:24 47.99450 16.06129 15702 ft 369 kts 274°
2026-05-05 10:24 47.99759 16.02368 16431 ft 372 kts 275°
2026-05-05 10:24 48.00086 15.98510 17086 ft 376 kts 275°
2026-05-05 10:24 48.00406 15.94651 17781 ft 378 kts 275°
2026-05-05 10:25 48.00719 15.90760 18461 ft 381 kts 275°
2026-05-05 10:25 48.01026 15.86813 19109 ft 384 kts 275°
2026-05-05 10:25 48.01325 15.82904 19734 ft 388 kts 275°
2026-05-05 10:25 48.01627 15.78890 20341 ft 391 kts 275°
2026-05-05 10:26 48.01929 15.74835 20935 ft 395 kts 275°
2026-05-05 10:26 48.02233 15.70734 21541 ft 398 kts 275°
2026-05-05 10:26 48.02534 15.66657 22088 ft 402 kts 276°
2026-05-05 10:26 48.02839 15.62505 22703 ft 404 kts 276°
2026-05-05 10:27 48.03146 15.58322 23281 ft 407 kts 276°
2026-05-05 10:27 48.03449 15.54152 23800 ft 410 kts 276°
2026-05-05 10:27 48.03758 15.49898 24353 ft 413 kts 276°
2026-05-05 10:27 48.04066 15.45627 24876 ft 416 kts 276°
2026-05-05 10:28 48.04375 15.41327 25420 ft 418 kts 276°
2026-05-05 10:28 48.04677 15.37048 25852 ft 422 kts 275°
2026-05-05 10:28 48.04888 15.32677 26377 ft 423 kts 272°
2026-05-05 10:28 48.04987 15.28258 26881 ft 425 kts 270°
2026-05-05 10:29 48.05032 15.23831 27329 ft 428 kts 270°
2026-05-05 10:29 48.05060 15.19376 27805 ft 430 kts 270°
2026-05-05 10:29 48.05088 15.14952 28489 ft 427 kts 270°
2026-05-05 10:29 48.05121 15.10584 29224 ft 423 kts 270°
2026-05-05 10:30 48.05162 15.06201 29771 ft 421 kts 271°
2026-05-05 10:30 48.05207 15.01804 29817 ft 425 kts 271°
2026-05-05 10:30 48.05312 14.92828 29817 ft 443 kts 271°
2026-05-05 10:31 48.05426 14.83315 29813 ft 457 kts 271°
2026-05-05 10:31 48.05520 14.73843 29829 ft 455 kts 271°
2026-05-05 10:32 48.05591 14.64353 29825 ft 455 kts 270°
2026-05-05 10:32 48.05652 14.54874 29825 ft 455 kts 270°
2026-05-05 10:33 48.05706 14.45440 29819 ft 456 kts 270°
2026-05-05 10:33 48.05753 14.35984 29823 ft 455 kts 270°
2026-05-05 10:34 48.05794 14.26490 29824 ft 455 kts 269°
2026-05-05 10:34 48.05828 14.17073 29824 ft 455 kts 269°
2026-05-05 10:35 48.05856 14.07630 29824 ft 456 kts 269°
2026-05-05 10:35 48.05875 13.98197 29826 ft 455 kts 269°
2026-05-05 10:36 48.05887 13.88789 29827 ft 454 kts 269°
2026-05-05 10:36 48.05889 13.79346 29823 ft 456 kts 269°
2026-05-05 10:37 48.05885 13.69886 29822 ft 455 kts 269°
2026-05-05 10:37 48.05873 13.60491 29825 ft 457 kts 269°
2026-05-05 10:38 48.05733 13.51015 29825 ft 456 kts 265°
2026-05-05 10:38 48.05037 13.41648 29831 ft 455 kts 261°
2026-05-05 10:39 48.04153 13.32297 29831 ft 455 kts 260°
2026-05-05 10:39 48.03265 13.22905 29829 ft 453 kts 261°
2026-05-05 10:40 48.02417 13.13629 29828 ft 453 kts 261°
2026-05-05 10:40 48.01576 13.04240 29815 ft 454 kts 261°
2026-05-05 10:41 48.00745 12.94919 29809 ft 454 kts 261°
2026-05-05 10:41 47.99912 12.85607 29808 ft 455 kts 261°
2026-05-05 10:42 47.98645 12.71590 29812 ft 456 kts 261°
2026-05-05 10:43 47.97789 12.62238 29830 ft 455 kts 261°
2026-05-05 10:43 47.96935 12.52964 29829 ft 454 kts 261°
2026-05-05 10:44 47.96070 12.43615 29849 ft 452 kts 261°
2026-05-05 10:44 47.95205 12.34342 29844 ft 453 kts 260°
2026-05-05 10:45 47.94332 12.25061 29857 ft 451 kts 260°
2026-05-05 10:45 47.93450 12.15783 29845 ft 452 kts 260°
2026-05-05 10:46 47.92550 12.06496 29848 ft 453 kts 259°
2026-05-05 10:46 47.91647 11.97270 29848 ft 453 kts 259°
2026-05-05 10:47 47.90729 11.87969 29855 ft 454 kts 259°
2026-05-05 10:47 47.89806 11.78667 29842 ft 454 kts 259°
2026-05-05 10:48 47.88884 11.69404 29862 ft 454 kts 259°
2026-05-05 10:48 47.87955 11.60091 29868 ft 453 kts 259°
2026-05-05 10:49 47.87015 11.50772 29852 ft 455 kts 259°
2026-05-05 10:49 47.86073 11.41516 29874 ft 455 kts 259°
2026-05-05 10:50 47.85115 11.32199 29863 ft 454 kts 259°
2026-05-05 10:50 47.84152 11.22929 29867 ft 456 kts 258°
2026-05-05 10:51 47.83176 11.13608 29866 ft 457 kts 258°
2026-05-05 10:51 47.82195 11.04314 29867 ft 456 kts 258°
2026-05-05 10:52 47.81196 10.94987 29872 ft 458 kts 258°
2026-05-05 10:52 47.80186 10.85628 29873 ft 458 kts 258°
2026-05-05 10:53 47.79176 10.76320 29874 ft 456 kts 258°
2026-05-05 10:53 47.78151 10.67006 29874 ft 457 kts 258°
2026-05-05 10:54 47.77128 10.57772 29880 ft 455 kts 258°
2026-05-05 10:54 47.76098 10.48473 29885 ft 457 kts 258°
2026-05-05 10:55 47.75057 10.39159 29876 ft 457 kts 258°
2026-05-05 10:55 47.74289 10.29790 29872 ft 460 kts 263°
2026-05-05 10:56 47.74044 10.20286 29879 ft 462 kts 265°
2026-05-05 10:56 47.73907 10.10792 29868 ft 462 kts 265°
2026-05-05 10:56 47.73828 10.06020 29503 ft 465 kts 265°
2026-05-05 10:57 47.73743 10.01261 29242 ft 462 kts 265°
2026-05-05 10:57 47.73646 9.96454 28897 ft 464 kts 264°
2026-05-05 10:57 47.73538 9.91608 28410 ft 466 kts 264°
2026-05-05 10:57 47.73425 9.86816 27847 ft 466 kts 264°
2026-05-05 10:58 47.73307 9.82033 27276 ft 467 kts 264°
2026-05-05 10:58 47.73186 9.77261 26689 ft 468 kts 264°
2026-05-05 10:58 47.73059 9.72380 26083 ft 470 kts 264°
2026-05-05 10:58 47.72930 9.67562 25493 ft 472 kts 264°
2026-05-05 10:59 47.72798 9.62693 24893 ft 470 kts 264°
2026-05-05 10:59 47.72667 9.57914 24295 ft 466 kts 264°
2026-05-05 10:59 47.72535 9.53140 23704 ft 461 kts 264°
2026-05-05 10:59 47.72282 9.48492 23122 ft 453 kts 259°
2026-05-05 11:00 47.71624 9.43972 22547 ft 444 kts 249°
2026-05-05 11:00 47.70375 9.39824 21980 ft 437 kts 238°
2026-05-05 11:00 47.68695 9.36105 21407 ft 432 kts 232°
2026-05-05 11:00 47.66874 9.32598 20832 ft 428 kts 229°
2026-05-05 11:01 47.64994 9.29173 20259 ft 425 kts 228°
2026-05-05 11:01 47.63122 9.25838 19690 ft 420 kts 228°
2026-05-05 11:01 47.61277 9.22519 19117 ft 417 kts 229°
2026-05-05 11:01 47.59645 9.19033 18530 ft 416 kts 239°
2026-05-05 11:02 47.58586 9.15045 17996 ft 417 kts 252°
2026-05-05 11:02 47.57948 9.10877 17413 ft 416 kts 256°
2026-05-05 11:02 47.57615 9.06677 16886 ft 416 kts 266°
2026-05-05 11:02 47.57933 9.02420 16318 ft 418 kts 279°
2026-05-05 11:03 47.58807 8.98338 15795 ft 418 kts 287°
2026-05-05 11:03 47.59859 8.94349 15229 ft 417 kts 289°
2026-05-05 11:03 47.60958 8.90370 14627 ft 412 kts 289°
2026-05-05 11:03 47.62038 8.86475 14072 ft 408 kts 288°
2026-05-05 11:04 47.62897 8.82550 13500 ft 401 kts 279°
2026-05-05 11:04 47.63019 8.78526 12970 ft 388 kts 259°
2026-05-05 11:04 47.62282 8.74794 12492 ft 377 kts 246°
2026-05-05 11:04 47.61244 8.71238 11925 ft 372 kts 244°
2026-05-05 11:05 47.60170 8.67811 11410 ft 368 kts 243°
2026-05-05 11:05 47.59215 8.64315 10865 ft 364 kts 253°
2026-05-05 11:05 47.59029 8.60628 10360 ft 363 kts 278°
2026-05-05 11:05 47.59895 8.57286 10129 ft 342 kts 303°
2026-05-05 11:06 47.61486 8.54822 10046 ft 317 kts 319°
2026-05-05 11:06 47.63147 8.52850 9889 ft 300 kts 320°
2026-05-05 11:06 47.64740 8.50928 9533 ft 289 kts 319°
2026-05-05 11:06 47.66230 8.49030 9173 ft 280 kts 317°
2026-05-05 11:07 47.67665 8.47119 8843 ft 270 kts 316°
2026-05-05 11:07 47.69025 8.45265 8523 ft 267 kts 316°
2026-05-05 11:07 47.70397 8.43375 8155 ft 264 kts 316°
2026-05-05 11:07 47.71719 8.41553 7837 ft 256 kts 316°
2026-05-05 11:08 47.72952 8.39606 7585 ft 261 kts 304°
2026-05-05 11:08 47.73668 8.37204 7299 ft 254 kts 277°
2026-05-05 11:08 47.73605 8.34638 7011 ft 249 kts 254°
2026-05-05 11:08 47.73032 8.32230 6660 ft 247 kts 242°
2026-05-05 11:09 47.72063 8.30153 6360 ft 244 kts 226°
2026-05-05 11:09 47.70828 8.28525 6185 ft 238 kts 209°
2026-05-05 11:09 47.69265 8.27722 6050 ft 237 kts 185°
2026-05-05 11:09 47.67638 8.27895 5892 ft 237 kts 162°
2026-05-05 11:10 47.66195 8.29010 5620 ft 239 kts 142°
2026-05-05 11:10 47.64940 8.30642 5334 ft 237 kts 136°
2026-05-05 11:10 47.63767 8.32324 5089 ft 236 kts 136°
2026-05-05 11:10 47.62573 8.33988 4857 ft 236 kts 137°
2026-05-05 11:11 47.61378 8.35614 4651 ft 231 kts 137°
2026-05-05 11:11 47.60212 8.37204 4401 ft 225 kts 137°
2026-05-05 11:11 47.59081 8.38760 4165 ft 218 kts 137°
2026-05-05 11:11 47.57986 8.40263 3980 ft 210 kts 137°
2026-05-05 11:12 47.56934 8.41703 3776 ft 204 kts 138°
2026-05-05 11:12 47.55903 8.43112 3504 ft 202 kts 137°
2026-05-05 11:12 47.54884 8.44506 3234 ft 200 kts 137°
2026-05-05 11:12 47.53862 8.45903 2967 ft 199 kts 137°
2026-05-05 11:13 47.52873 8.47254 2691 ft 187 kts 137°
2026-05-05 11:13 47.51956 8.48507 2444 ft 172 kts 137°
2026-05-05 11:13 47.51138 8.49623 2251 ft 153 kts 136°
2026-05-05 11:13 47.50354 8.50694 2047 ft 151 kts 136°
2026-05-05 11:14 47.49601 8.51711 1841 ft 146 kts 137°
2026-05-05 11:14 47.48847 8.52727 1630 ft 144 kts 135°
2026-05-05 11:14 47.48125 8.53725 1475 ft 141 kts 137°
2026-05-05 11:14 47.47431 8.54673 1424 ft 120 kts 136°
2026-05-05 11:15 47.46909 8.55385 1425 ft 86 kts 136°
2026-05-05 11:15 47.46561 8.55857 1424 ft 57 kts 136°
2026-05-05 11:15 47.46293 8.56217 1424 ft 44 kts 136°
2026-05-05 11:15 47.46068 8.56331 1424 ft 20 kts 186°
2026-05-05 11:16 47.45926 8.56309 1424 ft 20 kts 186°
2026-05-05 11:16 47.45806 8.56292 1424 ft 12 kts 184°
2026-05-05 11:16 47.45718 8.56280 1424 ft 12 kts 185°
2026-05-05 11:16 47.45631 8.56266 1424 ft 12 kts 186°
2026-05-05 11:17 47.45546 8.56253 1424 ft 11 kts 186°
2026-05-05 11:17 47.45481 8.56200 1424 ft 13 kts 251°
2026-05-05 11:17 47.45483 8.56097 1424 ft 4 kts 275°
2026-05-05 11:17 47.45470 8.56074 1424 ft 4 kts 195°
2026-05-05 11:18 47.45421 8.56063 1424 ft 1 kts 186°
2026-05-05 11:18 47.45416 8.56062 1424 ft 0 kts 186°
2026-05-05 11:18 47.45413 8.56062 1424 ft 0 kts 186°
2026-05-05 11:18 47.45412 8.56062 1424 ft 0 kts 186°